OBJECT AN, 61771

Orbit data source: Space-Track

You're viewing an Uncataloged Satellite

Recently launched and/or uncataloged satellites may have evolving metadata. Metadata may include but not limited to: Owner, Maufacturer, Bus, Motor, and Mission.

OBJECT AN, 61771 is a satellite in SSO that was launched on Mon, 04 Nov 2024 UTC via a SOYUZ-2-1B launch vehicle from the Vostochny Cosmodrome (VOSTO). Unknown objects in Earth's orbit typically refer to objects detected orbiting the Earth but have not yet been identified or cataloged. These objects could be anything from previously untracked satellites, spent rocket stages, debris from satellite collisions, or even natural meteoroids temporarily captured by Earth's gravity.

Loading next visibility...
Identifier
61771, 2024-199AN
Orbit
SSO
Country
Flag of TBDTBD
Related business
Manufacturer
Sputniks
Mission
Operational Commercial Communications
Bus & Motor
CUBESAT 3U?, Unknown motor
Mass
3 kg wet, 3 kg dry
Launch date (UTC)
2024-11-04 (1 year ago)
Launch vehicle
SOYUZ-2-1B
Launch site
Vostochny Cosmodrome (VOSTO)
Object type
Unknown
Shape & HBR
Box, 0.1 m
Radar Cross Section
0.035 m², Small (<0.1 m²)

Expand to show TLE details & history
Last TLE update: 8 hours ago

TLE from 8 hours ago
0 OBJECT AN
1 61771U 24199AN  26061.95218721  .00043875  00000-0  80296-3 0  9992
2 61771  97.3105 295.9051 0007949 330.9811  29.0998 15.49189861117934
Epoch: 2026-03-02T22:51Z
TLE epoch observation values (Epoch: 2026-03-02T22:51:08.974Z)
Latitude
0.00002°
Longitude
152.37948°
Altitude
417.506 km
Speed
7.663 km/s
True Right ascension
19h 43m 37s
True Declination
0° 00' 00"
Sunlit
Object was in daylight at epoch
Visualization orbit readout
Latitude
Unknown
Longitude
Unknown
Altitude
Unknown
Speed
Unknown
Apparent Right ascension
Unknown
Apparent Declination
Unknown
Sunlit
N/A
Visualization observer readout
Local Sidereal Time
10:44:24
Azimuth
Unknown
Elevation
Unknown
Doppler factor
Unknown
Orbital elements
Apogee altitude
421.418 km
Perigee altitude
410.617 km
Semi-major axis
6,794.155 km
Eccentricity
0.00079
Inclination
97.3105°
RAAN
295.9051°
Arg. of periapsis
330.9811°
True anomaly
29.14414°
Mean anomaly
29.0998°
Eccentric anomaly
29.12197°
Mean motion
3.87561 °/min
Orbital period
92.89 mins
BSTAR
0.00080296
Loading maneuver chart data...
Computing Atmospheric mass density...
Loading historical data...
Loading historical data...
Loading historical data...
Loading historical data...
Loading historical data...
Loading historical data...
Loading historical data...

Documentation

Showing up to 5 results
|